User: anonymous   Login
Location: Unspecified
(0.0000°N, 0.0000°E)
Time: 18:21:37
(UTC+00:00)
Language:

BIRD BB - Orbit

View from above orbital plane
View from above orbital plane
View from above satellite
View from above satellite

Ground track
Ground track

The orbit data is extracted from the following two-line orbital elements,

1 42823U 98067MX  18343.83896719  .00045084  00000-0  26315-3 0  9990
2 42823  51.6294 181.9364 0005456 149.6595 210.4722 15.77912666 81466
Epoch (UTC): 09 December 2018 20:08:06
Eccentricity: 0.0005456
inclination: 51.6294°
perigee height: 333 km
apogee height: 340 km
right ascension of ascending node: 181.9364°
argument of perigee: 149.6595°
revolutions per day: 15.77912666
mean anomaly at epoch: 210.4722°
orbit number at epoch: 8146

The dashed part of the orbit path shows where the satellite is in the earth's shadow,  

DLR